Location: ????????
(60.5616°N, 46.8254°E)
Time: 16:38:27
(UTC+00:00)

Cosmos 2278 Rocket - Pass Details

Date: 18 February 2020
Orbit: 840 x 846 km, 71.0° (Epoch: 29 March)

Event Time Altitude Azimuth Distance (km) Brightness Sun altitude
Rises 20:20:59 0° 305° (NW) 3,409 5.9 -40.3°
Reaches altitude 10° 20:23:40 10° 315° (NW) 2,474 5.1 -40.4°
Enters shadow 20:25:59 22° 331° (NNW) 1,773 4.3 -40.5°
